This is the latest recevied weather packets stored in our database for station/object KE5YIM-13. If no packets are shown the sender has not sent any weather packets the latest 1 day(s).
| Time | Temp. | Humidity | Pressure | Rain* | Wind** | Luminosity | Snow |
|---|---|---|---|---|---|---|---|
| 1778033089 | 17.22° C | 72% | 1012 hPa | 0 mm | 0.89 m/s, 206° | 0 W/m² | - |
| 1778032785 | 17.22° C | 71% | 1011.9 hPa | 0 mm | 1.34 m/s, 142° | 0 W/m² | - |
| 1778032483 | 17.22° C | 71% | 1011.8 hPa | 0 mm | 2.68 m/s, 204° | 0 W/m² | - |
| 1778032180 | 17.22° C | 71% | 1011.9 hPa | 0 mm | 1.79 m/s, 75° | 0 W/m² | - |
| 1778031877 | 17.22° C | 72% | 1011.8 hPa | 0 mm | 1.79 m/s, 299° | 0 W/m² | - |
| 1778031573 | 17.22° C | 72% | 1011.8 hPa | 0 mm | 1.79 m/s, 183° | 0 W/m² | - |
| 1778031271 | 17.22° C | 71% | 1011.7 hPa | 0 mm | 1.34 m/s, 201° | 0 W/m² | - |
| 1778030967 | 17.22° C | 71% | 1011.4 hPa | 0 mm | 1.79 m/s, 278° | 0 W/m² | - |
| 1778030664 | 17.22° C | 70% | 1011.4 hPa | 0 mm | 3.13 m/s, 214° | 0 W/m² | - |
| 1778030361 | 17.78° C | 70% | 1011.7 hPa | 0 mm | 2.24 m/s, 270° | 0 W/m² | - |
| 1778030058 | 17.22° C | 70% | 1011.4 hPa | 0 mm | 1.79 m/s, 298° | 0 W/m² | - |
| 1778029755 | 17.22° C | 70% | 1011.5 hPa | 0 mm | 1.34 m/s, 145° | 0 W/m² | - |
| 1778029454 | 17.78° C | 70% | 1011.4 hPa | 0 mm | 2.68 m/s, 251° | 0 W/m² | - |
| 1778029150 | 17.22° C | 70% | 1011.3 hPa | 0 mm | 2.68 m/s, 265° | 0 W/m² | - |
| 1778028848 | 17.78° C | 70% | 1011.3 hPa | 0 mm | 1.34 m/s, 252° | 0 W/m² | - |
| 1778028542 | 17.78° C | 70% | 1011 hPa | 0 mm | 3.13 m/s, 251° | 0 W/m² | - |
| 1778028241 | 17.22° C | 70% | 1010.9 hPa | 0 mm | 2.24 m/s, 279° | 0 W/m² | - |
| 1778027936 | 17.22° C | 70% | 1011.1 hPa | 0 mm | 2.24 m/s, 244° | 0 W/m² | - |
| 1778027633 | 17.22° C | 71% | 1011 hPa | 0 mm | 0.45 m/s, 132° | 0 W/m² | - |
| 1778027329 | 17.22° C | 69% | 1010.9 hPa | 0 mm | 1.79 m/s, 190° | 0 W/m² | - |
| 1778027026 | 17.22° C | 70% | 1010.9 hPa | 0 mm | 2.24 m/s, 209° | 0 W/m² | - |
| 1778026721 | 17.78° C | 69% | 1011.1 hPa | 0 mm | 1.34 m/s, 219° | 0 W/m² | - |
| 1778026419 | 17.78° C | 69% | 1011.1 hPa | 0 mm | 1.79 m/s, 146° | 0 W/m² | - |
| 1778026116 | 17.78° C | 68% | 1010.7 hPa | 0 mm | 1.79 m/s, 215° | 0 W/m² | - |
| 1778025813 | 17.78° C | 67% | 1010.6 hPa | 0 mm | 3.58 m/s, 278° | 1 W/m² | - |
* Rain latest hour (hover to see other rain measurements)
** Current wind speed in m/s (hover to see current wind gust speed)